STARLINK-11455 [DTC] (62463 NORAD) Tracking and Keplerian Element Data

This shows tracking and keplerian element data for the satellite.

Feedback or suggestion? Click here.




ElementValue
Catalog62463
NameSTARLINK-11455 [DTC]
Epoch Orbit671
Epoch Day35.21658713
Epoch Year2025
RAAN106.468
Inclination43
Eccentricity0.0001754
Argument of Perigee266.4876
Mean Anonmoly93.5794
Mean Motion15.77850183
Decay Rate1.202E-05
L11 62463U 24254B 25035.21658713 .00001202 00000+0 97787-5 0 9993
L22 62463 43.0000 106.4680 0001754 266.4876 93.5794 15.77850183 6717



Live tracking and technical data element details for STARLINK-11455 [DTC] (NORAD 62463). STARLINK-11455 [DTC] can be tracked NOW for your location showing map with azimuth and elevation plus other details from your city location.







IsCatalogInMostPopularTable: catalog: 62463, numindb: 14
Update: records affected: 1



GetName: 62463 STARLINK-11455 [DTC]

Hit Count: updated at: Mon, 19 May 2025 02:51:27 GMT